Total_Precipitation_Accumulation
0.67 0.70 0.77 0.87 0.85 0.83 0.80 0.75 0.71 0.72 0.80 0.82 0.81 0.87 0.91 0.93 0.94 1.00 0.99 0.94 0.91 0.87 0.83 0.85 0.86 0.90 0.96 0.95 0.91 0.87 0.84 0.93 0.94 0.48 0.35 0.40 0.49 0.53 0.53 0.49 0.45 0.43 0.45
0.68 0.70 0.73 0.84 0.91 0.89 0.94 0.91 0.81 0.73 0.75 0.81 0.85 0.87 0.95 0.99 0.98 1.02 1.06 1.06 1.10 1.06 0.97 0.93 0.91 0.93 0.99 1.03 1.10 1.06 0.96 0.89 0.96 0.75 0.48 0.46 0.56 0.62 0.64 0.63 0.58 0.52 0.48
0.67 0.72 0.75 0.79 0.88 0.90 0.93 1.00 0.99 0.96 0.97 0.97 1.00 1.04 1.07 1.11 1.15 1.17 1.19 1.23 1.28 1.28 1.22 1.17 1.07 1.04 1.08 1.07 1.11 1.13 1.05 0.97 0.93 0.89 0.68 0.59 0.63 0.65 0.73 0.75 0.73 0.70 0.63
0.65 0.76 0.78 0.81 0.82 0.86 0.91 0.96 1.09 1.17 1.25 1.30 1.28 1.27 1.28 1.34 1.46 1.54 1.52 1.50 1.46 1.42 1.39 1.36 1.30 1.23 1.22 1.21 1.23 1.18 1.12 1.12 1.07 1.03 0.90 0.77 0.75 0.72 0.80 0.86 0.88 0.85 0.80
0.61 0.71 0.77 0.83 0.93 1.00 1.02 1.05 1.10 1.23 1.32 1.33 1.35 1.37 1.36 1.53 1.83 1.95 1.79 1.58 1.44 1.37 1.32 1.31 1.34 1.43 1.45 1.48 1.54 1.43 1.33 1.36 1.30 1.24 1.09 0.91 0.81 0.84 0.89 0.90 1.01 0.98 0.93
0.57 0.65 0.73 0.87 0.98 1.11 1.13 1.18 1.20 1.25 1.34 1.36 1.32 1.33 1.32 1.43 1.83 1.95 1.59 1.28 1.19 1.25 1.25 1.18 1.16 1.32 1.38 1.46 1.58 1.58 1.58 1.62 1.61 1.49 1.32 1.13 0.90 0.85 0.93 1.09 1.21 1.29 1.22
0.48 0.60 0.67 0.81 0.94 1.04 1.07 1.11 1.15 1.09 1.08 1.18 1.24 1.18 1.14 1.22 1.56 1.66 1.37 0.99 0.88 0.97 1.03 1.03 1.01 1.07 1.24 1.20 1.29 1.34 1.41 1.53 1.66 1.70 1.65 1.34 1.11 1.01 1.18 1.32 1.34 1.41 1.33
0.42 0.55 0.59 0.69 0.83 0.90 0.96 1.01 1.03 0.97 0.95 1.04 1.07 0.98 0.91 0.95 1.27 1.41 1.21 0.87 0.81 0.87 0.91 0.93 0.92 0.93 1.08 1.26 1.30 1.18 1.11 1.21 1.44 1.60 1.71 1.54 1.36 1.34 1.53 1.74 1.79 1.78 1.63
0.35 0.46 0.53 0.62 0.78 0.79 0.85 0.95 0.94 0.95 0.92 0.90 0.89 0.84 0.77 0.78 1.05 1.33 1.21 0.83 0.86 0.88 0.89 0.94 0.89 0.84 1.09 1.28 1.27 1.18 1.06 1.06 1.18 1.46 1.63 1.67 1.68 1.76 1.93 2.18 2.32 2.36 2.20
0.32 0.39 0.44 0.50 0.65 0.68 0.70 0.76 0.78 0.81 0.83 0.84 0.82 0.77 0.74 0.70 0.87 1.24 1.28 0.89 0.86 0.85 0.86 0.91 1.03 1.02 1.15 1.22 1.14 1.16 1.18 1.05 0.94 1.02 1.13 1.21 1.25 1.35 1.65 1.89 2.12 2.35 2.31
0.29 0.33 0.38 0.42 0.50 0.54 0.59 0.62 0.67 0.71 0.75 0.80 0.81 0.74 0.66 0.66 0.74 1.02 1.37 1.11 0.91 0.83 0.85 0.89 0.93 1.07 1.10 1.16 1.19 1.17 1.28 1.12 0.95 1.01 1.05 1.03 1.06 1.16 1.31 1.53 1.85 2.12 2.31
0.27 0.32 0.36 0.41 0.43 0.47 0.51 0.57 0.59 0.67 0.77 0.81 0.78 0.76 0.68 0.65 0.71 0.90 1.17 1.27 1.12 0.92 0.87 0.76 0.78 0.94 0.99 1.08 1.11 1.16 1.21 1.17 1.10 1.12 1.10 1.06 1.06 1.14 1.23 1.34 1.55 1.79 1.95
0.28 0.32 0.38 0.41 0.39 0.46 0.52 0.58 0.62 0.69 0.79 0.81 0.77 0.75 0.72 0.71 0.77 0.97 0.98 1.04 1.14 1.01 0.95 0.96 0.87 0.91 0.94 0.91 0.95 1.07 1.09 1.04 1.13 1.13 1.03 0.97 0.97 1.05 1.11 1.20 1.30 1.48 1.66
0.27 0.30 0.36 0.43 0.44 0.44 0.50 0.58 0.63 0.68 0.82 0.88 0.85 0.81 0.74 0.73 0.85 1.07 1.00 0.94 1.04 1.05 1.03 1.00 0.96 0.96 0.95 0.90 0.91 0.93 0.91 0.96 1.05 1.03 0.93 0.85 0.85 0.95 1.07 1.17 1.28 1.38 1.57
0.26 0.29 0.35 0.44 0.48 0.45 0.47 0.53 0.60 0.63 0.83 1.00 0.94 0.94 0.92 0.93 1.02 1.23 1.22 1.16 1.18 1.20 1.19 1.16 1.08 1.05 1.03 0.95 0.89 0.85 0.87 0.93 0.97 0.90 0.88 0.86 0.86 0.92 1.01 1.08 1.25 1.36 1.50
0.32 0.34 0.38 0.46 0.48 0.46 0.47 0.51 0.59 0.62 0.70 0.74 0.81 0.90 0.89 0.99 1.05 1.02 1.09 1.14 1.17 1.22 1.24 1.19 1.01 0.91 0.90 0.86 0.84 0.84 0.82 0.80 0.79 0.82 0.86 0.85 0.87 0.91 0.95 1.00 1.17 1.32 1.39
0.36 0.39 0.43 0.47 0.47 0.47 0.46 0.49 0.55 0.54 0.57 0.61 0.67 0.75 0.87 0.95 0.91 0.90 0.96 0.99 1.01 1.01 0.99 0.89 0.81 0.81 0.80 0.79 0.78 0.78 0.78 0.72 0.71 0.77 0.80 0.79 0.82 0.87 0.91 0.95 1.03 1.15 1.24
0.36 0.41 0.46 0.47 0.47 0.45 0.43 0.45 0.51 0.56 0.62 0.65 0.70 0.77 0.85 0.90 0.89 0.90 0.96 1.01 1.01 0.93 0.80 0.76 0.76 0.75 0.76 0.77 0.78 0.78 0.76 0.74 0.75 0.77 0.77 0.77 0.81 0.88 0.91 0.90 0.93 1.03 1.11
0.39 0.42 0.46 0.48 0.46 0.41 0.40 0.43 0.46 0.51 0.59 0.68 0.75 0.82 0.90 0.90 0.89 0.90 0.90 0.87 0.85 0.82 0.78 0.74 0.72 0.72 0.75 0.79 0.81 0.79 0.80 0.79 0.76 0.78 0.78 0.77 0.78 0.84 0.86 0.80 0.83 0.94 1.06
0.41 0.50 0.54 0.51 0.48 0.43 0.42 0.45 0.48 0.52 0.59 0.66 0.75 0.81 0.93 0.99 0.93 0.91 0.82 0.77 0.82 0.82 0.79 0.78 0.73 0.71 0.78 0.83 0.87 0.87 0.85 0.81 0.78 0.78 0.74 0.71 0.71 0.75 0.78 0.74 0.77 0.85 0.92
0.46 0.49 0.54 0.54 0.51 0.50 0.52 0.53 0.54 0.58 0.64 0.67 0.71 0.81 1.05 1.05 0.90 0.77 0.73 0.72 0.76 0.81 0.81 0.80 0.79 0.80 0.82 0.86 0.86 0.85 0.85 0.80 0.76 0.76 0.75 0.70 0.68 0.70 0.69 0.71 0.72 0.75 0.81
0.48 0.50 0.49 0.51 0.56 0.59 0.61 0.61 0.62 0.63 0.65 0.68 0.69 0.75 0.86 0.81 0.74 0.70 0.69 0.68 0.69 0.73 0.78 0.85 0.84 0.81 0.82 0.87 0.89 0.86 0.81 0.75 0.69 0.69 0.71 0.68 0.66 0.66 0.65 0.67 0.68 0.71 0.75
0.52 0.55 0.53 0.54 0.58 0.65 0.64 0.59 0.63 0.65 0.69 0.72 0.73 0.74 0.74 0.74 0.72 0.69 0.69 0.69 0.69 0.68 0.71 0.80 0.83 0.77 0.74 0.77 0.80 0.83 0.81 0.72 0.64 0.65 0.71 0.71 0.66 0.62 0.63 0.64 0.62 0.66 0.71
0.55 0.56 0.57 0.61 0.64 0.64 0.64 0.64 0.65 0.67 0.74 0.80 0.79 0.77 0.76 0.75 0.73 0.68 0.66 0.67 0.68 0.67 0.69 0.74 0.75 0.72 0.70 0.72 0.73 0.72 0.71 0.71 0.72 0.71 0.70 0.70 0.66 0.61 0.63 0.65 0.63 0.63 0.67
0.55 0.56 0.60 0.66 0.70 0.69 0.70 0.70 0.70 0.72 0.77 0.82 0.83 0.81 0.77 0.75 0.71 0.68 0.64 0.65 0.68 0.68 0.67 0.68 0.71 0.70 0.67 0.65 0.67 0.69 0.76 0.83 0.89 0.95 1.01 0.99 0.85 0.72 0.70 0.70 0.66 0.63 0.65
0.54 0.57 0.62 0.69 0.75 0.75 0.76 0.76 0.74 0.76 0.82 0.84 0.82 0.81 0.79 0.77 0.73 0.71 0.70 0.70 0.73 0.72 0.69 0.65 0.65 0.68 0.69 0.66 0.66 0.72 0.79 0.84 0.96 1.15 1.32 1.33 1.08 0.83 0.73 0.73 0.67 0.65 0.67